Theta_e
302 301 302 301 300 299 298 297 297 297 297 296 296 296 296 296 296 296 296 295 295 296 296 297 299 300 300 300 301 302 303 304 306 306 306 305 306 305 306 306 306 306 306
299 298 298 297 297 296 296 296 296 295 295 295 295 294 294 294 294 294 294 294 294 294 294 294 294 295 295 296 297 298 299 299 302 302 302 302 302 303 303 304 303 304 304
297 296 296 296 296 295 295 295 294 294 294 294 294 294 294 293 293 293 292 293 293 293 293 292 292 292 293 293 294 294 295 296 297 298 298 299 299 300 300 301 301 302 302
296 296 295 295 294 294 294 294 294 294 294 294 293 293 293 292 292 292 292 292 292 292 292 292 292 291 291 290 290 290 291 292 294 294 295 296 296 297 298 298 297 297 297
295 294 294 294 294 294 294 293 293 293 293 293 292 292 292 292 291 291 291 291 290 290 290 290 290 290 289 289 289 289 289 290 291 292 292 293 293 294 295 295 294 294 294
294 294 293 293 293 293 293 292 292 292 292 292 291 291 291 291 290 290 289 288 288 288 288 288 288 289 288 288 289 288 289 289 290 290 290 291 291 291 291 292 292 292 292
294 293 293 292 292 292 291 291 291 291 291 291 290 290 290 290 289 288 287 287 287 287 286 287 287 287 287 287 287 287 287 287 288 289 289 289 289 289 288 288 289 289 290
293 292 292 292 291 291 291 291 290 290 290 290 290 289 289 289 288 287 286 287 287 286 286 286 286 287 287 287 287 287 286 286 286 287 288 288 288 288 288 287 288 288 287
291 291 291 291 291 291 291 290 289 288 289 288 288 288 288 288 287 286 286 285 285 285 285 285 286 286 287 287 286 286 286 286 286 286 287 287 286 286 286 287 287 287 285
291 291 290 290 290 289 289 288 288 287 287 286 286 286 285 286 286 285 285 285 285 284 285 286 286 286 286 285 285 286 286 287 287 286 286 285 284 284 284 285 285 286 284
290 290 290 289 289 288 288 287 287 287 286 285 285 285 285 286 286 285 286 285 285 285 285 285 284 284 285 285 286 286 287 286 285 286 286 285 284 283 283 283 284 285 284
290 290 289 288 288 287 286 286 285 285 284 283 284 284 284 286 286 285 285 285 285 285 285 284 284 284 285 286 285 286 285 285 285 286 284 282 281 281 281 281 281 281 281
289 289 288 287 286 284 283 283 282 282 281 282 283 283 283 284 285 285 284 285 284 284 285 284 284 284 285 285 284 284 284 284 285 284 282 282 281 281 281 280 280 281 281
288 287 286 284 284 283 281 280 280 280 280 280 280 281 282 283 284 284 284 284 284 285 285 284 284 284 285 284 283 283 284 284 284 283 283 282 282 281 281 280 280 280 279
285 284 283 282 281 280 280 279 279 279 279 279 280 280 281 282 283 284 284 284 284 286 285 284 284 283 283 283 282 282 283 283 282 282 282 281 280 280 279 280 279 279 277
282 281 280 279 278 278 278 278 278 278 278 279 280 280 281 282 283 283 284 283 283 284 285 284 283 282 281 280 280 280 280 280 280 280 280 279 279 279 278 278 278 277 275
280 278 278 277 276 275 274 274 274 278 276 276 277 279 280 281 282 283 283 282 282 283 284 283 282 280 279 278 278 278 278 278 278 278 278 278 278 277 277 277 276 275 273
277 277 276 275 273 273 273 273 272 272 272 274 275 276 278 280 281 281 281 281 280 282 282 281 280 278 277 277 277 277 277 277 277 276 276 276 276 276 275 275 275 274 273
276 275 274 273 273 272 272 271 271 272 272 273 274 275 277 279 279 279 280 279 277 279 281 280 278 277 276 275 275 275 275 275 275 275 274 274 274 274 273 272 273 273 273
274 274 273 272 271 271 270 270 271 271 271 272 273 274 276 277 277 276 277 276 276 276 277 276 275 274 274 274 274 273 273 273 272 272 272 271 271 272 271 271 271 271 270
273 273 271 270 270 269 269 269 270 270 271 271 272 274 277 275 273 273 273 273 273 273 273 272 272 272 272 271 271 271 270 270 270 270 269 269 269 269 269 269 268 268 268
272 271 270 269 269 268 269 269 269 270 271 272 271 272 273 272 271 271 270 270 270 270 270 270 270 270 270 269 269 269 269 269 269 268 268 268 268 267 267 267 267 266 266
270 268 268 268 268 268 268 268 269 269 269 269 269 269 270 269 269 269 269 269 269 269 269 269 269 269 268 268 268 268 268 268 267 267 267 266 266 266 266 266 266 266 265
268 267 267 267 267 267 267 267 267 267 268 267 267 267 267 268 268 268 268 268 268 268 268 268 268 267 267 267 267 267 266 266 266 266 265 265 265 265 265 265 265 265 265
267 266 266 266 266 266 265 265 266 266 266 266 266 266 266 266 266 267 267 267 267 267 268 268 267 266 266 266 266 266 265 265 265 264 264 264 264 264 264 264 264 264 264
265 265 265 265 265 265 264 264 265 265 265 265 265 265 265 265 266 266 266 266 267 267 267 267 267 267 267 267 267 266 264 264 264 264 263 263 263 263 263 263 263 263 263
Wind_Speed
21 21 21 19 17 16 17 16 14 13 14 14 14 15 16 17 18 19 19 20 22 22 22 22 24 25 25 24 23 24 25 25 22 46 36 35 34 37 41 38 38 39 39
20 21 20 18 16 16 16 14 13 13 13 15 15 16 17 18 20 19 20 22 23 24 25 26 27 26 26 23 23 24 25 25 26 30 42 35 30 34 36 35 41 39 38
19 20 19 16 14 14 13 12 12 13 14 15 16 18 19 20 21 20 23 25 25 26 27 28 29 26 24 24 23 24 25 26 26 29 36 36 35 33 36 36 40 40 37
19 18 16 13 12 12 12 12 14 14 15 15 17 18 18 20 21 22 24 25 26 27 28 28 28 28 24 24 26 25 25 25 25 25 28 32 29 30 31 30 30 29 33
17 15 13 10 10 11 11 12 13 13 14 15 17 17 19 22 23 23 24 25 27 29 30 29 28 26 24 23 25 26 26 25 24 23 25 26 27 25 23 26 25 28 29
15 13 10 9 10 11 11 13 14 15 16 18 19 20 22 23 22 21 21 25 27 29 31 30 25 22 24 26 26 26 25 27 27 24 25 23 26 24 23 24 25 23 10
13 10 8 8 10 10 12 13 15 18 19 21 22 22 26 27 24 22 22 25 27 29 25 24 26 27 28 28 30 27 26 23 24 28 29 28 28 27 29 27 23 22 23
10 8 7 7 8 10 13 16 18 20 22 24 26 26 27 30 26 24 23 26 28 27 23 23 26 29 28 28 30 29 25 24 25 26 30 33 32 30 28 29 29 23 9
8 5 4 6 9 13 16 18 19 22 24 27 27 27 26 28 27 24 23 23 22 23 22 22 25 28 27 24 27 29 27 26 25 25 23 23 22 21 18 16 12 7 1
6 2 2 6 10 13 15 18 20 22 24 26 26 24 23 22 25 22 20 21 21 22 23 25 24 22 22 25 25 25 24 23 25 22 20 14 12 12 12 11 8 5 3
6 2 3 7 10 12 16 18 20 22 23 24 25 27 24 22 21 19 19 22 21 24 25 24 22 22 24 22 19 19 20 22 21 16 12 9 12 13 13 13 12 10 8
4 2 5 8 12 15 17 18 18 20 22 23 24 27 23 18 19 19 20 21 20 24 25 24 24 24 20 18 18 17 18 15 15 10 10 12 14 15 15 15 14 14 15
5 5 7 11 13 15 16 18 21 19 19 22 22 23 23 19 20 19 21 20 23 22 23 23 22 18 16 17 16 13 12 11 10 10 10 10 9 8 9 11 13 15 17
4 6 9 12 14 15 17 18 17 19 20 22 23 20 24 24 21 21 22 25 24 22 20 20 18 14 11 10 12 9 10 11 12 9 7 6 7 9 10 9 9 7 16
5 7 9 11 13 17 17 19 18 19 18 20 20 23 25 27 23 23 24 25 25 25 18 21 14 11 10 8 8 9 9 10 12 10 8 8 9 11 12 9 10 14 13
6 7 9 11 13 15 19 24 20 17 16 17 21 24 29 28 29 28 24 23 22 23 19 15 12 9 8 7 8 6 8 9 10 8 9 10 10 10 11 11 11 12 13
6 7 8 11 12 13 17 21 29 30 22 19 19 20 22 26 26 25 20 22 23 18 16 14 12 10 8 5 3 4 6 7 6 7 8 8 8 9 9 10 9 9 11
5 6 8 9 12 15 17 19 21 24 28 26 22 22 23 24 21 21 18 19 20 18 15 14 13 9 6 4 3 2 3 4 6 7 8 8 8 7 7 8 8 8 8
5 6 7 9 11 13 15 17 19 21 22 24 27 25 22 20 19 19 19 19 21 20 19 14 11 9 6 3 1 1 3 4 5 5 6 6 6 5 5 6 6 6 5
5 5 7 9 11 13 13 15 19 20 21 21 22 23 23 20 25 24 17 18 17 15 13 10 8 7 5 3 2 1 2 2 3 4 4 4 3 2 3 2 2 4 4
5 4 6 7 10 12 14 16 17 20 21 22 24 25 17 19 20 19 18 16 12 10 8 7 6 5 3 1 2 2 3 4 4 5 5 4 3 2 1 1 2 3 4
4 4 5 8 9 11 13 15 18 18 19 19 20 22 19 21 17 16 14 12 10 8 7 5 5 3 2 3 4 5 6 6 7 7 6 5 3 2 1 1 2 3 4
5 5 6 7 8 11 13 14 14 16 17 19 19 19 18 17 16 14 13 11 9 7 6 5 3 3 5 6 7 8 9 9 9 8 7 6 5 4 3 3 3 3 4
5 6 7 8 9 11 12 13 13 13 15 16 16 16 16 15 14 13 11 10 9 8 7 7 6 7 9 9 10 10 11 12 11 9 8 7 7 6 5 5 4 4 4
7 7 8 9 9 11 11 12 12 12 14 14 15 15 15 15 13 13 13 12 11 11 11 10 9 11 12 12 12 13 14 15 12 11 10 10 9 8 7 7 6 7 8
8 9 9 9 10 11 12 13 14 14 15 15 15 15 15 15 14 14 15 15 15 15 15 15 15 16 16 18 17 17 18 17 16 14 13 12 11 11 10 9 9 10 10
Wind_Direction
105 103 99 94 89 84 77 68 57 50 40 30 20 13 8 2 357 353 350 346 338 334 332 326 317 315 311 310 305 299 292 285 282 290 294 297 295 295 292 291 290 284 282
106 103 96 92 86 76 66 56 43 35 27 19 11 4 0 357 353 350 344 341 338 334 329 325 320 317 310 305 301 297 292 289 293 293 296 300 298 300 295 296 294 291 285
108 102 96 87 78 68 57 45 33 24 16 9 3 357 354 350 348 344 338 336 335 332 329 326 325 323 312 310 305 300 298 297 291 288 292 298 298 300 297 294 290 287 285
111 103 95 84 72 59 43 28 16 9 4 358 355 350 346 343 342 337 332 331 329 327 325 324 322 320 311 311 308 304 302 299 296 290 290 295 298 300 296 292 290 291 289
114 101 90 79 62 44 28 17 5 359 355 350 346 343 341 339 337 335 330 327 325 325 325 325 324 318 308 307 308 308 307 301 298 295 291 294 296 301 297 298 288 296 291
113 99 87 68 49 30 15 3 357 354 350 347 345 340 338 337 337 336 327 323 324 324 325 325 324 320 318 314 313 311 305 303 299 299 295 291 294 298 301 299 298 297 295
117 103 77 50 32 13 4 357 354 350 345 341 341 339 336 336 337 334 327 322 324 325 321 319 320 320 320 317 316 313 311 307 296 297 295 294 296 300 297 294 289 286 283
119 100 65 35 12 3 358 355 348 342 340 340 337 336 333 332 334 333 327 322 324 325 322 320 322 324 323 322 319 315 314 313 311 305 299 295 301 305 305 297 290 289 271
123 95 40 13 5 354 350 349 346 341 339 336 333 330 330 325 330 332 328 324 322 320 319 321 323 324 326 321 319 318 315 314 318 316 309 311 315 320 320 315 303 267 339
130 140 18 360 352 348 344 342 339 338 332 331 328 325 324 316 322 324 325 323 315 316 318 322 325 321 320 322 320 318 314 323 335 330 333 344 358 358 1 4 357 353 358
162 130 353 340 339 337 333 334 331 329 326 328 325 323 320 315 320 320 323 320 315 315 317 320 322 323 323 325 326 327 328 330 336 343 356 14 8 19 27 34 41 43 34
177 262 313 325 330 329 327 326 326 328 326 324 320 317 319 317 314 315 322 320 319 315 316 317 317 322 326 330 334 333 333 335 347 14 22 32 39 44 44 48 55 65 71
219 279 311 321 325 327 327 328 327 326 321 317 314 310 310 313 310 311 315 317 316 316 312 315 316 324 332 339 342 344 354 1 29 43 56 49 42 41 47 57 59 67 70
262 304 315 317 320 326 327 326 325 323 317 310 309 307 307 307 306 309 307 316 319 315 312 315 322 323 335 350 358 6 27 43 49 55 48 35 37 41 48 45 36 36 60
278 300 312 318 321 319 324 329 323 315 308 305 301 299 301 299 301 303 300 309 309 307 303 311 314 321 323 322 348 16 31 39 43 41 45 38 38 40 43 42 53 67 75
280 294 304 310 319 327 330 324 322 314 308 302 295 293 296 292 297 298 287 295 297 305 290 294 290 298 298 312 337 11 25 30 34 41 50 49 48 50 53 56 66 75 80
270 284 302 316 323 329 330 329 326 323 320 309 305 302 299 297 300 300 292 294 302 282 270 270 266 267 273 291 313 7 24 30 34 50 54 54 55 54 63 65 65 73 76
270 299 314 322 326 325 324 319 313 310 313 315 315 313 310 306 301 299 295 298 297 281 276 265 256 250 250 264 296 342 27 43 48 50 50 47 46 48 53 62 74 85 91
277 300 306 309 313 315 316 314 310 305 299 303 312 320 327 311 308 305 299 287 293 288 264 255 244 235 231 238 234 52 53 52 43 36 41 40 44 48 68 68 80 87 108
270 302 315 316 320 320 317 311 307 302 300 301 307 309 313 311 317 318 305 294 292 280 265 248 234 227 224 225 238 290 345 5 6 359 10 8 14 26 51 71 88 97 101
267 289 303 307 313 313 302 301 306 304 300 304 307 315 311 316 316 308 302 298 285 274 261 246 238 229 221 246 268 298 324 332 333 332 334 335 340 345 34 70 94 120 128
263 273 288 300 308 307 308 307 304 306 308 309 315 315 314 311 309 306 302 295 288 278 266 252 249 254 297 288 301 309 312 312 313 311 309 304 303 280 222 178 153 141 137
236 257 276 290 300 299 296 301 301 303 307 312 314 311 311 310 308 304 300 297 291 284 277 271 276 297 292 301 307 310 309 307 301 296 290 284 272 251 235 211 196 176 171
234 247 267 277 285 287 292 295 301 307 309 311 311 311 310 309 307 303 300 297 293 289 286 285 291 296 296 301 304 306 303 298 294 287 280 270 259 247 239 231 218 216 205
224 241 251 264 274 283 289 294 301 303 306 308 306 309 308 307 307 303 301 297 291 287 286 285 291 293 294 297 300 302 298 293 287 278 270 264 258 252 246 242 234 224 221
224 238 249 259 269 277 284 292 296 298 296 297 299 300 302 302 301 300 298 295 292 290 289 289 288 287 289 291 293 293 289 285 279 270 264 261 260 256 249 245 243 241 237